Time,TemperatureF,DewpointF,PressureIn,WindDirection,WindDirectionDegrees,WindSpeedMPH,WindSpeedGustMPH,Humidity,HourlyPrecipIn,Conditions,Clouds,dailyrainin,SolarRadiationWatts/m^2,SoftwareType,DateUTC
2013-07-26 11:52:00,80.0,51.0,-100.00,East,86,6.0,9.0,36,-99.99,,,0.00,810.169983,,2013-07-26 18:52:00,
2013-07-26 12:00:00,85.0,52.0,-100.00,East,89,4.0,6.0,32,-99.99,,,0.00,904.309998,,2013-07-26 19:00:00,
2013-07-26 12:43:00,85.0,52.0,-100.00,East,89,4.0,6.0,32,-99.99,,,0.00,904.309998,,2013-07-26 19:43:00,
2013-07-26 12:52:00,85.0,52.0,-100.00,East,89,4.0,6.0,32,-99.99,,,0.00,904.309998,,2013-07-26 19:52:00,
2013-07-26 15:00:00,97.0,23.0,-100.00,West,271,3.0,7.0,7,-99.99,,,0.00,863.630005,,2013-07-26 22:00:00,
2013-07-26 15:43:00,97.0,23.0,-100.00,West,271,3.0,7.0,7,-99.99,,,0.00,863.630005,,2013-07-26 22:43:00,
2013-07-26 15:53:00,97.0,23.0,-100.00,West,271,3.0,7.0,7,-99.99,,,0.00,863.630005,,2013-07-26 22:53:00,
2013-07-26 17:00:00,98.0,24.0,-100.00,WSW,245,4.0,14.0,6,-99.99,,,0.00,590.510010,,2013-07-27 00:00:00,
2013-07-26 17:42:00,98.0,24.0,-100.00,WSW,245,4.0,14.0,6,-99.99,,,0.00,590.510010,,2013-07-27 00:42:00,
2013-07-26 17:53:00,98.0,24.0,-100.00,WSW,245,4.0,14.0,6,-99.99,,,0.00,590.510010,,2013-07-27 00:53:00,
2013-07-26 18:00:00,96.0,37.0,-100.00,West,279,9.0,18.0,12,-99.99,,,0.00,413.510010,,2013-07-27 01:00:00,
2013-07-26 18:43:00,96.0,37.0,-100.00,West,279,9.0,18.0,12,-99.99,,,0.00,413.510010,,2013-07-27 01:43:00,
2013-07-26 18:53:00,96.0,37.0,-100.00,West,279,9.0,18.0,12,-99.99,,,0.00,413.510010,,2013-07-27 01:53:00,
2013-07-26 19:00:00,95.0,34.0,-100.00,West,260,10.0,20.0,12,-99.99,,,0.00,241.619995,,2013-07-27 02:00:00,
2013-07-26 19:43:00,95.0,34.0,-100.00,West,260,10.0,20.0,12,-99.99,,,0.00,241.619995,,2013-07-27 02:43:00,
2013-07-26 19:53:00,95.0,34.0,-100.00,West,260,10.0,20.0,12,-99.99,,,0.00,241.619995,,2013-07-27 02:53:00,
2013-07-26 20:00:00,91.0,37.0,-100.00,West,272,7.0,15.0,14,-99.99,,,0.00,79.260002,,2013-07-27 03:00:00,
2013-07-26 20:44:00,91.0,37.0,-100.00,West,272,7.0,15.0,14,-99.99,,,0.00,79.260002,,2013-07-27 03:44:00,
2013-07-26 20:52:00,91.0,37.0,-100.00,West,272,7.0,15.0,14,-99.99,,,0.00,79.260002,,2013-07-27 03:52:00,
2013-07-26 21:00:00,87.0,43.0,-100.00,WSW,258,13.0,22.0,21,-99.99,,,0.00,1.510000,,2013-07-27 04:00:00,
2013-07-26 21:43:00,87.0,43.0,-100.00,WSW,258,13.0,22.0,21,-99.99,,,0.00,1.510000,,2013-07-27 04:43:00,
2013-07-26 21:53:00,87.0,43.0,-100.00,WSW,258,13.0,22.0,21,-99.99,,,0.00,1.510000,,2013-07-27 04:53:00,
2013-07-26 22:00:00,83.0,46.0,-100.00,West,260,10.0,18.0,27,-99.99,,,0.00,0.000000,,2013-07-27 05:00:00,
2013-07-26 22:43:00,83.0,46.0,-100.00,West,260,10.0,18.0,27,-99.99,,,0.00,0.000000,,2013-07-27 05:43:00,
2013-07-26 22:52:00,83.0,46.0,-100.00,West,260,10.0,18.0,27,-99.99,,,0.00,0.000000,,2013-07-27 05:52:00,
2013-07-26 23:00:00,81.0,45.0,-100.00,WNW,293,4.0,9.0,28,-99.99,,,0.00,0.000000,,2013-07-27 06:00:00,
2013-07-26 23:43:00,81.0,45.0,-100.00,WNW,293,4.0,9.0,28,-99.99,,,0.00,0.000000,,2013-07-27 06:43:00,
2013-07-26 23:52:00,81.0,45.0,-100.00,WNW,293,4.0,9.0,28,-99.99,,,0.00,0.000000,,2013-07-27 06:52:00,